Regional Weather Roundup
Issued by NWS Burlington, VT

Home | Current Version | Previous Version | Text Only | Print | Product List | Glossary On
Versions: 1 2 3 4 5 6 7 8 9 10 11 12 13 14 15 16 17 18 19 20 21 22 23 24 25 26 27 28 29 30 31 32 33 34 35 36 37 38 39 40 41 42 43 44 45 46 47 48 49 50
000
ASUS41 KBTV 272230
RWRBTV
VERMONT REGIONAL WEATHER ROUNDUP
NATIONAL WEATHER SERVICE BURLINGTON VT
600 PM EDT TUE SEP 27 2016

NOTE: "FAIR" INDICATES FEW OR NO CLOUDS BELOW 12,000 FEET WITH NO
SIGNIFICANT WEATHER AND/OR OBSTRUCTIONS TO VISIBILITY.

* THESE REPORTS ARE NOT UNDER NWS QUALITY CONTROL AND/OR DO NOT
  REPORT WEATHER SUCH AS PRECIPITATION AND FOG.

VTZ001>019-272300-
_____VERMONT_____


CITY           SKY/WX    TMP DP  RH WIND       PRES   REMARKS
BURLINGTON     PTCLDY    70  45  40 S6        29.88R
MONTPELIER     PTCLDY    65  48  54 S6        29.94R
MORRISVILLE    CLEAR     64  47  53 N3        29.91R
ST. JOHNSBURY*   N/A     66  49  54 MISG      29.88R
LYNDONVILLE*   FAIR      64  46  53 CALM      29.93R
MIDDLEBURY*    FAIR      61  52  72 CALM      29.90R
RUTLAND*       CLEAR     68  47  46 SW5       29.91R
SPRINGFIELD    CLEAR     67  49  52 S5        29.90R
HIGHGATE*      FAIR      62  55  77 CALM      29.89R
NEWPORT*       FAIR      57  46  66 CALM      29.93R
BENNINGTON     CLEAR     64  52  64 CALM      29.91R
SUTTON*          N/A     55 N/A N/A MISG        N/A
ISLAND POND*     N/A     59 N/A N/A CALM        N/A
GALLUP MILLS*    N/A     54 N/A N/A MISG        N/A
UNION VILLAGE*   N/A     57 N/A N/A MISG        N/A
MT. MANSFIELD*   N/A     54 N/A N/A S8          N/A

_____LAKE CHAMPLAIN_____


CITY           SKY/WX    TMP DP  RH WIND       PRES   REMARKS
BURTON ISLAND*   N/A     68  52  56 E1          N/A
COLCHESTER RF*   N/A     68  54  60 SE3         N/A
DIAMOND ISL*     N/A     70  48  46 S8          N/A

$$

NYZ007-026>031-035-052-083-087-272300-
_____NORTHERN NEW YORK_____


CITY           SKY/WX    TMP DP  RH WIND       PRES   REMARKS
PLATTSBURGH    MOCLDY    64  53  67 CALM      29.87R
SARANAC LAKE   MOCLDY    59  44  57 W3        29.89R
MASSENA        CLEAR     66  47  50 SW6       29.88R
OGDENSBURG*    CLEAR     63  52  67 CALM      29.86S
POTSDAM*       CLEAR     66  50  55 CALM      29.88S
STARK FALLS*     N/A     91 N/A N/A W3          N/A
WATERTOWN      CLEAR     67  42  40 CALM      29.86R
FT DRUM        MOCLDY    67  44  42 S6        29.86S
ALBANY         PTCLDY    70  48  45 S6        29.89R
GLENS FALLS    CLEAR     68  49  50 S6        29.89R

$$
NHZ002-005-011-272300-
_____NEW HAMPSHIRE_____


CITY           SKY/WX    TMP DP  RH WIND       PRES   REMARKS
LEBANON        CLEAR     64  57  78 CALM      29.89R
KEENE          CLEAR     64  57  78 CALM      29.91R
MT WASHINGTON  PTCLDY    43  34  70 SW8         N/A
PLYMOUTH       FAIR      61  53  76 CALM      29.91R
WHITEFIELD     CLEAR     62  52  69 CALM      29.91R

$$

_____REGIONAL QUEBEC LOCATIONS_____


CITY           SKY/WX    TMP DP  RH WIND       PRES   REMARKS
MONTREAL       PTCLDY    64  50  59 SE7       29.87R
QUEBEC CITY    PTCLDY    52  45  76 E16G23    29.97R
SHERBROOKE     CLEAR     59  50  72 CALM      29.90R

_____REGIONAL ONTARIO LOCATIONS_____


CITY           SKY/WX    TMP DP  RH WIND       PRES   REMARKS
OTTAWA         MOCLDY    64  45  48 SW8       29.86R

______KEY______
VSB  - VISIBILITY IN MILES
WCI  - WIND CHILL INDEX
HX   - HEAT INDEX
$$
NNNN




USA.gov is the U.S. government's official web portal to all federal, state and local government web resources and services.